Find OneWeb SL0122

NORAD ID: 47291 Int'l Des: 2020-100 Owner: ONEWEB Country: UK Constellation: oneweb operational
LEOCIRCULARPOLARONEWEB_TYPE

Live Position

Loading 3D Globe...

About OneWeb SL0122

Description loading...

Upcoming Passes

Passes for default location (London). Set your location on the main map for personalized predictions.

Altitude History

Loading altitude history...

Two-Line Element Set

1 47291U 20100AK 26104.45051712 -.00000157 00000-0 -47287-3 0 9990
2 47291 87.9002 3.3335 0001773 76.0864 284.0461 13.12442682256402
Epoch: Apr 14, 2026 • Age: 7 hours

Current Status

Altitude 1216.2 km
Velocity 7.25 km/s
Sub-Earth Point 27.53°N, 112.63°W
Launch Date Dec 18, 2020
Age 5.3 years
Type internet

Technical Details

Classification Payload
Mass 148.00 kg
Dry Mass 140.00 kg
Total Mass 148.00 kg
Length 1.30 m
Diameter 1.00 m
Span 5.00 m
Shape Trapezoid+2 pan
Manufacturer ONEWUS
Bus Type ARROW
Phase Status In Orbit
Owner/State ONEWEB/UK

Most Searched